Regional Weather Roundup
Issued by NWS

Home | Current Version | Previous Version | Graphics & Text | Print | Product List | Glossary On
Versions: 1 2 3 4 5 6 7 8 9 10 11 12 13 14 15 16 17 18 19 20 21 22 23 24 25 26 27 28 29 30 31 32 33 34 35 36 37 38 39 40 41 42 43 44 45 46 47 48 49 50
000
ASUS43 KLMK 280302
RWRKY
KENTUCKY REGIONAL WEATHER ROUNDUP
NATIONAL WEATHER SERVICE LOUISVILLE KY
1100 PM EDT FRI MAR 27 2015

NOTE "FAIR" INDICATES FEW OR NO CLOUDS BELOW 12,000 FEET
WITH NO SIGNIFICANT WEATHER AND/OR OBSTRUCTIONS TO VISIBILITY.

KYZ001>023-026-027-061>063-070>075-280400-
WESTERN AND SOUTH CENTRAL KENTUCKY

CITY           SKY/WX    TMP DP  RH WIND       PRES   REMARKS
PADUCAH        CLEAR     36  18  48 NW3       30.18S
HENDERSON      MOCLDY    34  21  60 N8        30.17R WCI  27
OWENSBORO      MOCLDY    34  21  59 N9        30.17R WCI  27
HOPKINSVILLE   CLOUDY    36  20  52 N7        30.15R WCI  30
BOWLING GREEN  CLOUDY    37  19  48 NW8       30.14R WCI  31
GLASGOW        NOT AVBL
$$

KYZ024-025-028>034-038-045-046-053-280400-
NORTH CENTRAL KENTUCKY

CITY           SKY/WX    TMP DP  RH WIND       PRES   REMARKS
LOUISVILLE/SDF MOCLDY    33  17  51 N12       30.13R WCI  24
LOUISVILLE/LOU CLOUDY    32  17  54 N10       30.13R WCI  24
FORT KNOX      CLOUDY    32  23  69 NW9       30.10R WCI  24
$$

KYZ035>037-039>044-047>052-055>060-089>105-280400-
NORTHEAST KENTUCKY

CITY           SKY/WX    TMP DP  RH WIND       PRES   REMARKS
LEXINGTON      CLOUDY    29  17  61 N8        30.09R WCI  21
COVINGTON      CLOUDY    28  18  66 NW8       30.10R WCI  20
FRANKFORT      CLOUDY    30  16  56 N9        30.10R WCI  22
$$

KYZ054-064>069-076>088-106>120-280400-
SOUTHEAST KENTUCKY

CITY           SKY/WX    TMP DP  RH WIND       PRES   REMARKS
JACKSON        CLOUDY    30  19  63 VRB3      30.03R
LONDON         CLOUDY    33  22  63 NW14      30.05R WCI  23
SOMERSET       NOT AVBL
MIDDLESBORO    NOT AVBL
MONTICELLO     NOT AVBL
$$



USA.gov is the U.S. government's official web portal to all federal, state and local government web resources and services.